User: anonymous
Location: Trois-Rivi�res
(46.3500°N, 72.5500°W)
Time: 08:42:27
(UTC-04:00)
Language:

SJ-11-01 - Orbit

View from above orbital plane
View from above orbital plane
View from above satellite
View from above satellite

Ground track
Ground track

The orbit data is extracted from the following two-line orbital elements,

1 36088U 09061A   14210.12014017  .00000121  00000-0  34543-4 0  2399
2 36088 098.0334 257.1526 0010156 317.4062 042.6352 14.60088483250852
Epoch (UTC): 29 July 2014 02:53:00
Eccentricity: 0.0010156
inclination: 98.0334°
perigee height: 686 km
apogee height: 700 km
right ascension of ascending node: 257.1526°
argument of perigee: 317.4062°
revolutions per day: 14.60088483
mean anomaly at epoch: 42.6352°
orbit number at epoch: 25085

The dashed part of the orbit path shows where the satellite is in the earth's shadow,  

DLR